Temperature
17 17 18 18 18 19 20 22 23 23 23 22 22 22 20 19 18 16 15 15 15 16 16 16 15 15 15 15 15 15 15 15 15 15 15 15 15 15 15 15 15 14 15 15 15 15 15 15 15
17 17 18 18 18 19 20 22 22 22 22 21 22 22 20 18 16 15 15 15 15 15 15 15 15 15 15 15 15 15 15 15 15 15 15 15 15 15 15 15 14 14 14 14 14 14 14 15 15
17 17 18 18 19 20 21 22 21 21 21 21 21 20 18 16 16 15 15 15 15 15 15 15 15 15 15 15 15 15 15 15 15 15 15 15 15 15 15 15 15 14 14 14 14 14 14 14 15
16 17 18 18 19 20 21 21 21 21 21 21 20 18 16 15 15 15 15 15 15 15 15 15 15 15 15 15 15 15 14 15 15 14 14 14 14 14 15 15 15 15 14 14 14 14 14 14 14
16 17 18 18 19 20 21 21 21 21 20 20 20 18 15 14 14 15 15 15 14 14 15 15 15 15 15 15 14 14 14 14 14 14 14 14 14 14 14 14 14 14 14 14 14 14 14 14 14
16 18 17 17 19 20 20 21 21 21 20 20 19 17 14 14 14 14 14 14 14 14 14 15 15 15 14 14 14 14 14 14 14 14 14 14 14 14 14 14 14 14 14 14 14 14 14 14 14
16 17 17 18 19 19 20 21 20 20 19 19 19 17 14 14 14 14 14 14 14 14 14 14 14 14 14 14 14 14 14 14 14 14 14 14 14 14 14 14 14 14 14 14 14 14 14 14 14
16 16 17 18 18 19 20 20 19 19 18 18 17 16 13 13 13 13 13 13 13 13 13 14 14 14 14 14 14 14 14 14 14 14 14 14 14 14 14 14 14 14 14 14 14 14 14 14 14
16 15 16 18 18 18 19 18 18 17 17 16 15 15 14 13 13 13 13 13 13 13 13 13 13 13 14 14 14 14 14 14 13 13 13 13 13 13 13 13 13 13 13 13 13 13 13 13 13
15 14 16 17 18 17 17 17 17 17 16 15 14 14 13 13 13 13 13 13 13 13 13 13 13 13 13 13 13 13 13 13 13 13 13 13 13 13 13 13 13 13 13 13 13 13 13 13 13
15 14 16 16 17 16 16 16 16 16 15 15 14 13 13 12 13 12 12 12 12 12 12 12 13 13 13 13 13 13 13 13 13 13 13 12 12 12 12 12 12 12 12 12 12 12 12 12 12
14 15 15 15 15 15 15 15 15 15 14 14 14 13 12 12 12 12 12 12 12 12 12 12 12 12 12 12 12 12 12 12 12 12 12 12 12 12 12 12 12 12 12 12 12 12 12 12 12
14 14 14 14 14 14 14 14 14 14 13 13 13 12 12 12 12 12 12 12 12 12 12 12 12 12 12 12 12 12 12 12 12 12 12 12 12 12 12 12 12 12 12 12 12 12 12 12 12
14 14 14 14 13 13 13 13 13 13 13 13 12 12 12 11 11 11 11 11 11 11 11 11 12 11 11 11 11 11 11 11 11 11 11 11 11 11 12 12 12 11 11 11 11 11 11 11 11
13 13 13 13 13 13 13 12 12 13 12 12 12 11 11 11 11 11 11 11 11 11 11 11 11 11 11 11 11 11 11 11 11 11 11 11 11 11 11 11 11 11 11 11 11 11 11 11 11
13 12 11 13 13 13 12 11 13 13 13 12 12 11 11 10 10 10 10 10 10 10 11 11 11 11 11 11 11 10 10 10 10 10 10 10 10 11 11 11 11 11 11 11 11 11 11 11 11
12 11 12 12 13 13 12 12 12 12 12 12 11 11 10 10 10 10 10 10 10 10 10 10 10 10 10 10 10 10 10 10 10 10 10 10 10 10 10 10 10 10 10 10 10 10 10 10 10
11 12 13 12 12 12 12 11 11 12 12 12 11 11 10 10 9 9 9 10 10 10 10 10 10 10 10 9 9 9 9 9 9 9 9 9 10 9 9 10 10 10 10 10 10 10 10 10 10
12 12 12 12 12 12 11 11 11 12 11 11 11 11 10 10 9 9 9 9 9 9 9 9 9 9 9 9 9 9 9 9 9 9 9 9 9 9 9 9 9 9 9 9 9 9 9 9 9
11 11 11 11 11 11 11 11 11 11 11 11 11 11 10 9 9 8 8 9 9 9 9 9 9 9 8 8 8 8 8 8 8 8 8 8 8 8 8 8 8 9 9 9 9 9 9 9 8
10 10 11 11 10 10 10 9 10 11 11 11 11 10 10 9 8 8 8 8 8 8 8 8 8 8 8 8 8 8 8 7 7 7 8 8 8 8 8 8 8 8 8 8 8 8 8 8 8
9 10 10 10 8 8 9 8 10 10 10 10 10 10 9 9 8 8 7 7 7 7 7 7 7 7 7 7 7 7 7 7 7 7 7 7 7 7 7 7 7 7 7 8 8 8 7 7 7
8 9 9 9 8 7 8 7 8 10 9 9 9 9 9 8 8 8 7 7 7 7 7 7 7 7 7 7 7 7 7 6 6 6 6 6 7 7 7 7 7 7 7 7 7 7 7 7 7
8 8 8 8 7 6 7 7 8 9 9 9 9 9 8 8 7 7 7 6 6 6 6 6 6 6 6 6 6 6 6 6 6 6 6 6 6 6 6 6 6 6 6 6 6 7 7 6 6
7 6 6 6 6 6 8 8 8 9 9 8 7 8 7 7 7 6 6 5 5 6 6 6 6 6 6 6 5 6 6 6 6 6 6 5 5 5 6 6 6 6 6 6 6 6 6 6 6
6 7 6 6 7 7 7 7 7 8 7 8 8 7 7 6 6 5 5 5 5 5 5 5 5 5 5 5 5 5 5 5 5 5 5 5 5 5 5 5 5 5 5 5 5 5 5 5 5
6 6 7 6 6 6 7 8 8 7 6 6 6 6 6 5 5 5 5 4 4 5 5 5 4 4 5 5 4 5 5 5 5 5 5 5 4 4 4 4 4 5 5 4 4 5 5 5 5
6 6 5 5 6 6 7 8 7 6 6 6 5 5 5 5 5 4 4 4 4 4 4 4 4 4 4 4 4 4 4 4 4 4 4 4 4 4 4 4 4 4 4 4 4 4 4 4 4
5 5 5 5 6 6 6 7 7 7 6 5 5 5 5 4 4 4 4 3 3 3 3 3 3 3 3 3 3 3 3 4 4 4 3 3 3 3 3 3 3 3 3 3 3 3 3 3 3
5 5 5 4 4 5 5 5 6 6 6 6 5 5 4 4 4 3 3 3 3 3 3 2 3 3 3 3 3 3 3 3 3 3 3 3 3 3 3 3 3 2 2 3 3 3 3 3 3
Wind_Speed
14 12 7 3 3 4 5 4 0 3 3 4 6 5 7 7 6 8 3 5 8 10 12 11 10 10 10 10 11 11 11 10 11 10 10 11 11 11 11 11 11 11 11 11 11 11 12 12 11
12 7 4 3 4 5 5 5 2 3 5 4 5 5 7 7 7 7 4 5 8 10 12 11 11 10 10 10 10 11 10 10 10 10 10 10 10 10 10 10 10 10 10 10 10 10 10 10 10
9 6 3 4 4 5 4 2 6 6 7 3 3 6 5 5 5 4 4 5 8 10 12 12 11 11 10 10 10 10 10 9 9 9 9 9 9 9 9 9 9 9 9 9 9 9 9 9 8
4 3 4 4 6 5 2 3 6 7 4 3 5 6 5 5 3 5 5 6 8 10 12 11 11 10 10 10 10 10 10 9 8 8 8 8 8 8 8 8 8 8 8 8 8 7 7 7 7
3 3 5 5 7 5 1 2 3 4 4 2 4 5 5 5 7 7 6 6 7 9 12 11 10 10 10 10 10 10 9 8 8 7 7 7 7 7 7 7 7 7 7 7 7 6 6 6 5
3 3 5 8 8 5 2 1 2 3 3 2 3 5 5 5 5 5 5 6 8 9 11 10 10 10 9 9 9 9 8 8 8 7 7 6 6 6 6 6 6 6 6 6 6 5 5 4 4
3 4 6 7 6 5 3 1 2 2 3 2 1 4 5 4 4 4 5 6 8 10 9 8 8 9 9 8 8 8 7 7 7 8 8 7 6 6 6 6 5 5 4 4 4 4 4 3 2
3 3 6 7 7 5 2 1 2 2 1 2 3 4 5 4 4 5 6 7 8 8 7 7 7 7 7 7 7 7 7 7 7 7 7 7 6 6 5 5 5 4 4 3 3 3 3 2 1
3 4 5 5 4 2 2 1 2 4 4 4 5 5 7 8 6 6 6 6 6 6 5 5 5 6 6 6 6 6 6 6 6 5 5 5 5 5 4 4 4 3 3 2 1 2 2 1 2
3 4 5 3 2 1 2 2 3 2 3 3 6 8 9 7 6 6 5 5 5 5 4 4 4 4 5 4 5 4 4 4 3 3 3 2 3 4 4 3 3 2 1 0 1 2 2 3 3
3 4 3 2 3 3 2 1 1 2 2 2 6 8 8 6 5 5 5 5 4 4 4 4 4 4 4 3 3 3 3 3 3 3 3 3 3 3 3 2 2 1 1 1 2 2 3 3 3
3 3 2 1 3 2 0 1 1 1 2 4 5 8 7 6 4 3 4 4 4 4 4 3 4 4 4 4 3 3 3 3 3 2 3 3 2 2 2 1 1 0 0 1 2 2 2 2 2
7 4 2 1 1 1 0 2 1 1 2 4 5 7 6 5 4 3 3 3 4 4 4 3 3 3 3 3 3 3 3 3 3 3 3 2 2 1 1 1 1 0 0 1 2 2 1 2 2
2 3 3 3 3 3 3 3 3 4 4 4 5 5 5 5 4 3 2 2 3 3 3 3 2 2 3 2 2 3 3 3 3 2 3 3 2 2 1 1 1 1 2 2 2 1 2 2 2
1 2 3 5 6 4 3 6 8 7 6 6 6 6 6 5 4 3 2 2 2 2 3 3 3 2 2 2 2 2 3 3 2 2 2 2 3 2 2 1 1 2 3 3 2 2 2 2 2
4 4 5 5 7 5 5 8 6 7 8 7 6 5 5 5 4 3 3 2 2 2 2 3 3 3 2 2 1 1 2 3 2 2 2 2 2 2 2 1 1 2 3 2 2 2 2 2 2
6 6 6 5 7 6 8 5 5 6 7 7 7 6 6 5 4 4 3 3 2 2 3 3 3 3 2 2 2 2 2 2 3 2 2 2 2 2 2 1 1 2 1 1 2 1 1 2 3
6 6 5 6 6 6 8 6 5 6 7 7 7 7 7 6 5 4 3 3 3 3 3 3 3 3 2 2 2 2 2 2 3 3 3 2 2 2 2 1 1 1 1 1 2 2 2 2 2
4 5 5 3 2 5 9 9 8 8 8 8 7 7 7 6 5 4 4 3 3 3 3 3 3 2 2 1 1 1 0 1 1 3 3 3 3 2 1 1 1 1 1 2 2 1 2 2 2
7 7 6 1 2 3 6 9 8 9 10 8 8 8 8 7 6 6 4 4 3 3 3 2 2 2 2 1 1 1 0 0 0 2 3 4 4 3 2 1 1 1 1 2 2 2 1 2 1
7 6 5 2 2 4 4 7 9 8 8 8 8 7 7 7 7 6 5 4 3 3 2 2 2 2 1 1 1 1 1 1 1 1 1 2 3 2 2 2 2 2 2 2 2 2 2 2 2
5 3 4 2 2 3 3 4 5 6 7 8 7 6 6 5 6 6 5 5 4 3 2 2 2 2 1 1 1 1 1 0 1 1 1 1 1 2 3 2 2 2 2 2 2 2 2 2 2
1 1 2 3 3 4 5 5 6 6 7 7 7 6 5 5 6 5 5 5 4 3 2 1 2 2 1 1 1 1 1 0 1 1 1 1 0 1 2 2 2 2 2 2 2 2 3 3 3
2 1 2 2 2 5 8 7 5 6 8 7 6 5 4 4 5 5 5 5 4 3 3 2 1 1 1 1 1 1 1 0 0 1 2 2 1 1 1 2 2 2 2 2 3 3 3 3 3
3 2 1 2 4 6 5 6 6 2 3 5 7 5 5 4 4 5 5 4 4 3 2 2 1 1 0 1 1 1 0 0 1 1 1 2 2 1 1 2 2 3 3 3 3 3 3 4 4
6 5 4 4 4 2 4 6 3 3 4 4 5 5 4 5 4 4 4 4 3 3 2 2 1 0 1 0 0 1 1 0 1 1 1 2 2 2 2 2 2 3 4 4 3 3 3 3 4
4 5 1 0 2 3 5 3 1 4 4 4 4 5 4 4 4 4 3 3 3 3 2 2 1 1 0 1 1 1 1 1 1 1 2 2 2 2 3 2 2 3 3 3 3 2 3 3 3
2 2 3 3 3 4 4 4 4 5 5 4 4 4 3 4 3 3 3 3 3 3 2 1 1 1 1 0 1 1 1 1 1 1 1 2 2 2 2 3 3 3 3 3 3 2 2 3 3
4 4 4 3 3 3 3 2 2 3 5 5 5 4 4 4 3 2 2 2 3 2 2 1 1 0 0 0 1 1 1 1 1 1 1 2 2 2 2 2 3 3 3 3 2 2 2 3 3
2 4 5 4 4 3 2 3 3 4 4 5 4 3 3 3 3 3 3 2 2 2 1 1 1 1 0 0 0 1 1 0 1 1 2 2 2 3 3 3 3 3 3 3 2 3 3 2 3
Wind_Direction
301 279 262 259 245 231 232 239 123 75 57 37 40 46 68 46 49 105 120 84 98 108 112 111 107 105 103 99 96 96 95 96 94 93 92 91 90 88 89 87 85 86 85 84 84 81 81 82 81
294 284 263 241 243 228 222 215 123 68 78 62 50 59 75 69 68 102 98 85 96 105 110 109 107 104 103 100 97 96 94 96 95 97 97 95 92 90 89 87 87 88 87 84 84 83 83 81 81
278 266 252 239 242 242 228 129 114 93 84 88 74 44 56 67 84 101 100 104 98 99 99 105 107 104 103 102 98 96 94 93 94 95 97 97 95 94 92 91 90 89 88 85 84 84 84 81 79
273 243 243 244 240 257 290 63 103 116 100 75 104 82 73 52 67 95 102 104 103 101 97 103 107 105 100 99 98 93 90 90 92 95 94 95 96 96 96 95 93 93 92 89 86 84 82 81 79
245 247 229 227 239 247 295 60 90 125 132 133 114 103 86 61 69 92 101 101 99 98 97 102 104 105 101 98 97 92 90 88 89 93 94 97 98 96 98 99 95 95 94 93 91 88 83 79 74
245 243 231 221 220 222 231 114 121 117 117 114 112 114 100 85 76 94 98 98 96 96 96 103 103 103 103 101 98 95 93 90 88 90 91 95 99 99 97 99 99 97 97 96 94 92 87 81 72
250 245 244 234 220 210 212 162 120 133 126 127 15 111 120 101 89 101 98 92 90 89 90 92 98 101 100 103 101 98 96 93 90 88 88 87 89 92 94 95 93 96 95 98 99 97 95 88 78
276 269 242 236 230 219 177 129 73 45 82 50 32 101 128 125 110 107 95 83 85 87 90 89 93 95 94 96 101 99 96 93 89 88 88 86 86 87 90 89 89 87 88 92 100 111 109 112 119
266 243 234 238 235 199 121 135 77 39 69 58 51 67 109 123 116 101 95 83 80 82 85 83 85 89 93 95 102 104 102 97 91 90 91 90 87 84 77 85 94 90 79 77 105 140 169 178 219
229 228 231 280 325 70 87 78 128 138 139 113 87 86 109 119 119 114 109 102 90 86 85 80 77 73 81 94 102 104 107 111 104 97 90 68 63 79 87 101 107 106 111 135 243 226 223 233 236
217 232 238 293 9 46 72 53 333 188 196 155 136 128 125 126 130 129 121 114 106 103 91 82 76 70 65 63 88 85 85 94 92 85 79 73 67 73 91 107 119 151 209 253 262 249 244 245 244
224 239 244 276 359 19 177 183 255 289 62 77 112 131 131 140 143 137 129 122 115 104 92 76 74 74 64 54 59 79 74 67 65 71 81 74 69 65 81 105 114 172 252 280 272 256 261 274 271
224 223 199 158 49 11 332 211 232 222 103 87 103 127 140 143 135 126 121 117 115 110 102 86 79 82 72 61 48 68 59 60 59 46 55 62 60 76 63 79 86 30 15 287 300 315 331 328 314
206 210 200 201 207 211 223 221 218 210 165 149 145 153 152 148 144 142 121 112 117 115 113 106 97 86 79 80 59 55 61 60 64 52 43 39 33 34 42 49 37 24 343 322 309 303 314 310 319
192 214 215 213 209 200 220 235 220 195 184 181 178 170 156 155 150 147 139 127 115 113 117 115 119 91 94 88 69 64 57 57 68 61 64 41 30 20 23 39 16 6 336 331 339 323 318 309 311
209 211 214 198 198 185 210 241 205 178 184 184 181 175 164 163 159 149 129 110 103 109 109 109 108 107 104 86 66 52 51 47 50 61 63 37 23 13 22 28 333 343 347 357 339 324 306 306 300
205 222 215 190 198 187 211 235 188 186 189 189 185 180 176 168 161 148 132 117 110 121 117 108 101 105 105 90 73 63 53 43 37 42 56 28 356 359 14 357 332 345 2 345 322 324 315 306 297
208 221 223 200 186 205 224 229 204 196 199 200 191 185 181 181 168 152 143 127 115 104 100 105 110 104 110 110 94 75 55 40 42 41 34 21 9 3 359 356 343 354 342 317 308 306 308 293 289
269 251 244 224 181 220 232 236 226 209 212 207 200 192 188 184 166 159 156 143 126 109 98 96 106 111 108 106 119 123 27 359 17 37 26 19 11 1 356 351 335 335 287 280 294 303 299 301 315
257 259 256 242 183 234 248 252 237 222 216 205 201 196 188 180 169 166 156 144 135 124 115 112 108 113 107 111 143 161 158 148 88 33 22 22 16 9 4 359 291 283 279 288 293 303 285 297 311
243 247 257 255 286 242 258 262 227 217 216 207 204 200 187 182 174 167 157 144 131 123 128 132 121 112 108 116 117 98 80 64 48 18 356 5 5 7 12 8 335 287 257 249 265 264 255 265 278
239 248 264 246 252 246 202 265 236 196 203 205 202 194 184 176 168 165 161 148 140 132 125 120 114 103 103 123 126 124 114 308 315 303 299 320 1 6 351 360 357 320 298 275 262 268 267 254 258
210 317 276 242 245 273 223 234 260 192 205 203 195 191 178 170 161 158 152 140 128 124 116 110 119 102 86 104 133 134 78 4 337 335 329 294 303 12 347 351 351 327 304 285 274 274 270 258 256
151 270 304 263 229 251 216 208 259 202 202 191 186 173 165 157 151 142 128 123 119 113 105 96 99 105 100 90 97 92 103 34 325 335 337 310 288 281 314 336 327 313 310 300 288 268 263 260 260
195 155 134 217 217 238 188 204 243 199 139 157 162 154 144 135 130 135 133 136 138 131 125 118 95 52 85 84 72 59 65 249 247 267 297 311 290 282 269 312 308 308 305 303 297 285 265 257 253
202 194 186 211 230 242 187 220 231 109 92 98 117 128 128 135 131 131 143 149 148 142 133 127 124 325 344 26 332 289 285 249 293 310 305 286 280 278 286 286 284 291 295 297 294 283 285 271 256
184 214 234 210 280 259 230 218 171 116 120 122 115 120 129 140 130 125 128 143 141 140 138 141 166 200 331 357 324 289 313 344 331 337 329 303 295 315 319 304 294 295 296 293 297 273 281 288 266
265 162 142 182 221 248 242 215 213 183 182 158 148 150 143 119 111 114 122 129 134 139 141 141 146 173 203 239 285 313 326 339 328 318 335 323 320 335 327 333 324 314 314 317 306 299 291 294 287
184 189 194 207 234 223 251 246 15 128 141 147 147 144 139 128 121 109 101 109 112 113 118 114 128 106 341 319 333 336 303 326 337 320 327 333 345 349 337 331 330 326 324 324 318 309 307 299 302
227 207 185 192 228 218 245 270 19 64 88 112 126 130 124 113 102 91 87 97 102 109 108 101 85 48 352 332 344 315 287 299 324 324 341 340 337 341 337 338 336 331 330 327 312 303 307 306 310
Height
1497 1498 1500 1502 1504 1504 1500 1490 1484 1486 1489 1492 1493 1494 1498 1505 1510 1521 1522 1520 1521 1521 1522 1523 1525 1526 1528 1529 1530 1532 1533 1534 1535 1535 1536 1537 1538 1538 1539 1540 1540 1541 1541 1542 1542 1542 1543 1543 1544
1497 1499 1502 1502 1503 1506 1499 1488 1488 1489 1492 1494 1495 1497 1501 1508 1513 1516 1519 1520 1521 1522 1522 1524 1525 1527 1528 1530 1531 1532 1533 1535 1536 1536 1537 1538 1539 1539 1540 1541 1541 1542 1542 1543 1543 1544 1544 1544 1545
1497 1499 1501 1499 1499 1499 1493 1486 1488 1490 1493 1496 1498 1501 1506 1512 1515 1517 1519 1520 1521 1522 1523 1524 1526 1527 1528 1530 1531 1533 1534 1535 1536 1537 1538 1539 1539 1540 1541 1542 1542 1543 1543 1543 1544 1544 1545 1545 1546
1498 1500 1500 1499 1498 1492 1488 1487 1488 1492 1495 1497 1500 1505 1510 1515 1516 1517 1518 1520 1521 1522 1523 1525 1526 1528 1529 1530 1532 1533 1534 1535 1536 1537 1538 1539 1540 1541 1541 1542 1543 1543 1544 1544 1544 1545 1545 1546 1546
1498 1498 1498 1499 1496 1490 1488 1489 1490 1492 1496 1499 1500 1506 1512 1515 1516 1517 1519 1520 1522 1522 1523 1525 1526 1528 1529 1531 1532 1533 1534 1535 1536 1538 1538 1539 1540 1541 1542 1542 1543 1543 1544 1544 1545 1545 1546 1546 1547
1499 1496 1498 1498 1494 1490 1489 1491 1492 1494 1497 1499 1502 1507 1514 1516 1516 1517 1519 1521 1522 1523 1524 1525 1527 1528 1530 1531 1532 1533 1534 1535 1536 1537 1538 1539 1540 1541 1542 1542 1543 1543 1544 1545 1545 1545 1546 1546 1547
1497 1495 1495 1492 1492 1491 1491 1492 1493 1495 1498 1501 1503 1507 1513 1515 1516 1517 1519 1521 1522 1522 1524 1525 1527 1528 1529 1531 1532 1533 1534 1535 1536 1537 1538 1539 1540 1541 1541 1542 1543 1543 1544 1544 1545 1545 1546 1546 1547
1494 1494 1492 1491 1491 1492 1491 1492 1495 1497 1500 1502 1503 1507 1512 1514 1516 1517 1519 1520 1522 1523 1524 1525 1526 1528 1529 1530 1532 1533 1534 1535 1536 1537 1538 1538 1539 1540 1541 1541 1542 1543 1543 1544 1545 1545 1546 1546 1547
1493 1496 1494 1490 1490 1491 1492 1494 1497 1499 1501 1503 1505 1507 1510 1513 1515 1517 1518 1520 1521 1523 1524 1525 1526 1527 1528 1530 1531 1532 1533 1534 1535 1536 1537 1538 1538 1539 1540 1541 1541 1542 1543 1544 1544 1545 1545 1546 1546
1493 1495 1492 1490 1489 1491 1493 1496 1498 1500 1502 1505 1507 1508 1510 1512 1514 1515 1517 1519 1520 1522 1523 1524 1526 1527 1528 1529 1530 1531 1532 1533 1534 1535 1536 1537 1537 1538 1539 1540 1541 1541 1542 1543 1543 1544 1544 1545 1545
1490 1491 1490 1491 1491 1493 1495 1498 1499 1500 1503 1504 1506 1508 1510 1512 1514 1515 1517 1518 1520 1521 1523 1524 1525 1526 1527 1528 1529 1530 1531 1532 1533 1534 1535 1536 1536 1537 1538 1538 1539 1540 1541 1541 1542 1542 1543 1543 1544
1490 1490 1491 1493 1494 1495 1497 1499 1501 1501 1503 1504 1505 1507 1509 1511 1513 1515 1516 1518 1519 1520 1522 1523 1524 1525 1526 1527 1528 1529 1530 1531 1532 1533 1534 1534 1535 1535 1536 1537 1538 1538 1539 1540 1540 1541 1541 1542 1543
1490 1491 1492 1494 1495 1496 1497 1499 1501 1502 1503 1504 1505 1506 1508 1510 1512 1514 1516 1517 1518 1519 1520 1521 1523 1524 1525 1526 1527 1528 1528 1529 1530 1531 1532 1533 1533 1534 1535 1535 1536 1537 1537 1538 1538 1539 1540 1540 1540
1489 1490 1492 1494 1495 1497 1498 1499 1501 1501 1502 1504 1505 1506 1507 1509 1511 1512 1514 1515 1516 1517 1519 1520 1521 1522 1523 1524 1525 1526 1527 1528 1529 1529 1530 1531 1531 1532 1533 1533 1534 1535 1535 1536 1536 1537 1537 1538 1538
1490 1492 1492 1493 1494 1496 1498 1498 1497 1498 1501 1503 1504 1505 1507 1508 1510 1511 1512 1513 1515 1516 1517 1518 1519 1520 1521 1522 1523 1524 1525 1526 1527 1528 1528 1529 1530 1530 1531 1531 1532 1533 1533 1534 1534 1534 1535 1535 1535
1490 1492 1494 1491 1492 1494 1499 1498 1493 1495 1498 1500 1502 1504 1505 1507 1508 1509 1510 1512 1513 1514 1515 1516 1517 1518 1519 1520 1521 1522 1523 1524 1525 1526 1526 1527 1528 1528 1529 1529 1530 1531 1531 1531 1532 1532 1532 1532 1532
1490 1492 1490 1491 1489 1491 1494 1494 1493 1493 1495 1497 1500 1501 1503 1505 1506 1507 1508 1509 1511 1512 1513 1514 1515 1516 1517 1518 1519 1519 1520 1521 1522 1523 1523 1524 1525 1525 1526 1527 1528 1528 1528 1529 1529 1529 1530 1530 1530
1489 1488 1485 1487 1487 1489 1491 1490 1491 1491 1493 1495 1497 1499 1500 1502 1504 1505 1506 1507 1509 1510 1511 1512 1513 1514 1514 1515 1516 1517 1518 1519 1519 1520 1521 1521 1522 1523 1523 1524 1525 1525 1526 1526 1526 1526 1527 1527 1527
1482 1483 1484 1485 1486 1488 1489 1488 1488 1489 1490 1492 1493 1495 1497 1499 1501 1503 1504 1505 1506 1507 1508 1509 1511 1511 1512 1512 1513 1514 1515 1515 1516 1517 1518 1519 1519 1520 1520 1521 1522 1522 1522 1523 1523 1523 1524 1524 1524
1483 1485 1484 1485 1485 1487 1487 1486 1484 1484 1485 1487 1489 1491 1494 1496 1498 1500 1501 1502 1503 1505 1506 1507 1508 1509 1509 1510 1511 1512 1512 1513 1514 1514 1515 1516 1516 1517 1517 1518 1518 1519 1519 1519 1520 1520 1521 1521 1521
1484 1485 1485 1486 1487 1486 1488 1486 1480 1479 1481 1483 1485 1487 1490 1492 1494 1496 1498 1499 1500 1502 1503 1504 1505 1506 1507 1508 1509 1509 1510 1510 1511 1511 1511 1512 1513 1514 1514 1515 1515 1515 1516 1516 1517 1517 1518 1517 1518
1486 1484 1484 1487 1492 1493 1490 1495 1479 1476 1478 1480 1482 1484 1486 1489 1491 1493 1495 1496 1498 1499 1501 1502 1503 1504 1505 1506 1506 1507 1507 1507 1508 1508 1509 1509 1510 1510 1511 1512 1512 1512 1512 1513 1513 1514 1514 1514 1514
1486 1484 1485 1487 1491 1494 1490 1495 1483 1475 1477 1477 1479 1481 1483 1486 1488 1490 1492 1494 1495 1497 1498 1500 1501 1502 1502 1503 1504 1504 1505 1505 1506 1506 1506 1506 1507 1507 1508 1508 1508 1509 1509 1509 1509 1510 1510 1510 1511
1486 1487 1488 1488 1493 1499 1488 1491 1481 1473 1471 1473 1476 1478 1481 1484 1486 1488 1490 1491 1493 1495 1496 1497 1498 1499 1500 1500 1501 1501 1502 1503 1503 1503 1503 1503 1503 1503 1504 1504 1505 1505 1505 1505 1505 1505 1506 1506 1507
1487 1492 1498 1498 1499 1492 1480 1484 1479 1469 1468 1470 1473 1476 1479 1482 1484 1485 1487 1489 1490 1492 1493 1494 1496 1496 1497 1498 1498 1499 1499 1499 1500 1500 1500 1500 1500 1500 1500 1500 1501 1501 1501 1501 1502 1502 1502 1502 1503
1486 1487 1494 1496 1491 1483 1483 1482 1474 1469 1469 1470 1472 1475 1478 1481 1483 1484 1485 1487 1488 1489 1490 1492 1493 1494 1494 1495 1495 1496 1496 1496 1497 1497 1497 1497 1497 1496 1496 1497 1497 1497 1497 1497 1497 1498 1498 1498 1498
1484 1487 1485 1490 1491 1490 1480 1472 1470 1469 1470 1471 1473 1475 1478 1480 1481 1483 1484 1485 1486 1487 1488 1489 1490 1491 1491 1492 1493 1493 1493 1493 1493 1493 1493 1494 1493 1493 1493 1493 1493 1493 1493 1493 1493 1493 1493 1494 1494
1483 1483 1490 1492 1491 1485 1474 1470 1473 1472 1471 1472 1474 1475 1477 1479 1480 1481 1482 1483 1484 1485 1486 1487 1487 1488 1488 1489 1490 1490 1490 1490 1490 1490 1490 1490 1490 1489 1489 1489 1489 1488 1489 1489 1489 1489 1489 1489 1489
1485 1486 1486 1487 1485 1485 1481 1475 1468 1467 1468 1471 1473 1475 1476 1478 1479 1480 1481 1481 1482 1483 1484 1485 1485 1485 1486 1486 1486 1487 1487 1487 1487 1487 1486 1486 1486 1486 1485 1485 1485 1484 1484 1484 1485 1485 1485 1485 1485
1481 1481 1484 1489 1487 1483 1483 1481 1469 1469 1469 1471 1473 1475 1476 1477 1478 1479 1480 1480 1481 1481 1482 1482 1482 1483 1483 1483 1483 1483 1484 1483 1483 1484 1483 1483 1483 1482 1481 1481 1481 1481 1480 1480 1480 1480 1480 1480 1480